Regional Weather Roundup
Issued by NWS

Home | Current Version | Previous Version | Graphics & Text | Print | Product List | Glossary On
Versions: 1 2 3 4 5 6 7 8 9 10 11 12 13 14 15 16 17 18 19 20 21 22 23 24 25 26 27 28 29 30 31 32 33 34 35 36 37 38 39 40 41 42 43 44 45 46 47 48 49 50
073
ASUS44 KMEG 290910
RWRTN
TENNESSEE HOURLY STATE WEATHER ROUNDUP
NATIONAL WEATHER SERVICE MEMPHIS TN
400 AM CDT SAT APR 29 2017

TNZ002-004-019-021-049-052-054-088>092-291000-
WEST TENNESSEE

CITY           SKY/WX    TMP DP  RH WIND       PRES   REMARKS
MEMPHIS INTL   CLOUDY    77  70  79 S16G25    29.82R
NWS MEMPHIS      N/A     76 N/A N/A MISG        N/A
JACKSON        CLOUDY    76  69  79 S8        29.87R
DYERSBURG      CLOUDY    76  69  79 S7        29.84R
SOMERVILLE     CLOUDY    75  70  83 S12G21    29.83R
UNION CITY     CLOUDY    75  70  83 S9        29.83R
BOLIVAR        CLOUDY    75  68  78 S10G24    29.86R
HUNTINGDON     CLOUDY    75  70  83 S10       29.87R
LEXINGTON      CLOUDY    75  68  78 S12G20    29.89F
SAVANNAH       CLOUDY    75  70  83 S13G21    29.89S
$$

TNZ008-025-027-028-033-062-065-066-291000-
NORTH MIDDLE TENNESSEE

CITY           SKY/WX    TMP DP  RH WIND       PRES   REMARKS
NASHVILLE      CLOUDY    75  68  78 S7        29.96R
PORTLAND       CLOUDY    73  68  83 S7        29.96R
CLARKSVILLE    CLOUDY    74  66  76 S6        29.90S
SMYRNA         CLOUDY    76  68  76 VRB5      29.98
COOKEVILLE     PTCLDY    73  66  78 S7        30.00S
GALLATIN       CLOUDY    77  68  73 S8        29.99R
CROSSVILLE     CLEAR     69  64  84 S5        30.08R
$$

TNZ061-075-076-078-094-096-097-291000-
SOUTH MIDDLE TENNESSEE

CITY           SKY/WX    TMP DP  RH WIND       PRES   REMARKS
FAYETTEVILLE   MOCLDY    72  68  88 S7        29.98S
TULLAHOMA      MOCLDY    72  64  78 SE6       30.01R
WINCHESTER     MOCLDY    72  66  83 S6        30.01R
MCMINNVILLE    CLEAR     73  66  78 CALM      30.01R
COLUMBIA       MOCLDY    75  75 100 S8        29.94R
SHELBYVILLE    CLOUDY    75  70  83 S8        29.99R
$$

TNZ017-018-042-046-047-291000-
NORTHEAST TENNESSEE

CITY           SKY/WX    TMP DP  RH WIND       PRES   REMARKS
TRI CITIES     CLOUDY    59  58  96 CALM      30.12R
ELIZABETHTON     N/A     63  59  88 CALM      30.13S
$$

TNZ012-013-036-069-073-074-291000-
CENTRAL EAST TENNESSEE

CITY           SKY/WX    TMP DP  RH WIND       PRES   REMARKS
KNOXVILLE      CLEAR     65  61  87 E5        30.06R
OAK RIDGE      MOCLDY    69  64  84 CALM      30.07R
DOWNTOWN KNOXV CLEAR     61  61 100 CALM      30.07R FOG
GATLINBURG     CLEAR     61  61 100 E3        30.07R
MORRISTOWN     CLEAR     64  63  94 CALM      30.09R
JACKSBORO      CLOUDY    75  64  69 S9        30.08S
$$

TNZ083-085-099-291000-
SOUTHEAST TENNESSEE

CITY           SKY/WX    TMP DP  RH WIND       PRES   REMARKS
CHATTANOOGA    MOCLDY    68  65  90 CALM      30.05R
$$

SKY/WX REPORTED AS FAIR MEANS FEW OR NO CLOUDS BELOW
12 THOUSAND FEET.





USA.gov is the U.S. government's official web portal to all federal, state and local government web resources and services.